Year,Month,Day,Hour,Minute,Value (Times are PST for temperature in C)
2018,10,15,00,00,8.70
2018,10,15,00,01,8.70
2018,10,15,00,02,8.80
2018,10,15,00,03,8.80
2018,10,15,00,04,8.80
2018,10,15,00,05,8.80
2018,10,15,00,06,8.90
2018,10,15,00,07,8.90
2018,10,15,00,08,9.00
2018,10,15,00,09,9.00
2018,10,15,00,10,9.00
2018,10,15,00,11,9.10
2018,10,15,00,12,9.10
2018,10,15,00,13,9.10
2018,10,15,00,14,9.10
2018,10,15,00,15,9.10
2018,10,15,00,16,9.10
2018,10,15,00,17,9.10
2018,10,15,00,18,9.10
2018,10,15,00,19,9.10
2018,10,15,00,20,9.10
2018,10,15,00,21,9.10
2018,10,15,00,22,9.10
2018,10,15,00,23,9.10
2018,10,15,00,24,9.10
2018,10,15,00,25,9.10
2018,10,15,00,26,9.00
2018,10,15,00,27,9.00
2018,10,15,00,28,9.00
2018,10,15,00,29,9.00
2018,10,15,00,30,8.90
2018,10,15,00,31,8.90
2018,10,15,00,32,8.90
2018,10,15,00,33,8.90
2018,10,15,00,34,9.00
2018,10,15,00,35,9.00
2018,10,15,00,36,9.00
2018,10,15,00,37,9.00
2018,10,15,00,38,9.00
2018,10,15,00,39,9.00
2018,10,15,00,40,8.90
2018,10,15,00,41,8.90
2018,10,15,00,42,8.90
2018,10,15,00,43,8.80
2018,10,15,00,44,8.70
2018,10,15,00,45,8.60
2018,10,15,00,46,8.50
2018,10,15,00,47,8.40
2018,10,15,00,48,8.30
2018,10,15,00,49,8.20
2018,10,15,00,50,8.10
2018,10,15,00,51,8.10
2018,10,15,00,52,8.10
2018,10,15,00,53,8.10
2018,10,15,00,54,8.10
2018,10,15,00,55,8.10
2018,10,15,00,56,8.20
2018,10,15,00,57,8.20
2018,10,15,00,58,8.30
2018,10,15,00,59,8.30
2018,10,15,01,00,8.30
2018,10,15,01,01,8.30
2018,10,15,01,02,8.40
2018,10,15,01,03,8.40
2018,10,15,01,04,8.40
2018,10,15,01,05,8.40
2018,10,15,01,06,8.40
2018,10,15,01,07,8.40
2018,10,15,01,08,8.40
2018,10,15,01,09,8.40
2018,10,15,01,10,8.40
2018,10,15,01,11,8.40
2018,10,15,01,12,8.40
2018,10,15,01,13,8.40
2018,10,15,01,14,8.40
2018,10,15,01,15,8.40
2018,10,15,01,16,8.40
2018,10,15,01,17,8.40
2018,10,15,01,18,8.40
2018,10,15,01,19,8.40
2018,10,15,01,20,8.40
2018,10,15,01,21,8.50
2018,10,15,01,22,8.40
2018,10,15,01,23,8.40
2018,10,15,01,24,8.40
2018,10,15,01,25,8.40
2018,10,15,01,26,8.40
2018,10,15,01,27,8.40
2018,10,15,01,28,8.40
2018,10,15,01,29,8.40
2018,10,15,01,30,8.30
2018,10,15,01,31,8.30
2018,10,15,01,32,8.30
2018,10,15,01,33,8.30
2018,10,15,01,34,8.30
2018,10,15,01,35,8.30
2018,10,15,01,36,8.20
2018,10,15,01,37,8.20
2018,10,15,01,38,8.20
2018,10,15,01,39,8.10
2018,10,15,01,40,8.10
2018,10,15,01,41,8.10
2018,10,15,01,42,8.00
2018,10,15,01,43,8.00
2018,10,15,01,44,7.90
2018,10,15,01,45,7.90
2018,10,15,01,46,7.90
2018,10,15,01,47,7.90
2018,10,15,01,48,7.90
2018,10,15,01,49,7.90
2018,10,15,01,50,7.90
2018,10,15,01,51,7.90
2018,10,15,01,52,8.00
2018,10,15,01,53,8.00
2018,10,15,01,54,8.00
2018,10,15,01,55,8.00
2018,10,15,01,56,8.00
2018,10,15,01,57,8.00
2018,10,15,01,58,8.00
2018,10,15,01,59,8.00
2018,10,15,02,00,8.00
2018,10,15,02,01,8.00
2018,10,15,02,02,8.00
2018,10,15,02,03,8.00
2018,10,15,02,04,7.90
2018,10,15,02,05,8.00
2018,10,15,02,06,8.00
2018,10,15,02,07,8.00
2018,10,15,02,08,8.00
2018,10,15,02,09,8.00
2018,10,15,02,10,8.00
2018,10,15,02,11,8.10
2018,10,15,02,12,8.10
2018,10,15,02,13,8.10
2018,10,15,02,14,8.10
2018,10,15,02,15,8.10
2018,10,15,02,16,8.10
2018,10,15,02,17,8.10
2018,10,15,02,18,8.10
2018,10,15,02,19,8.10
2018,10,15,02,20,8.10
2018,10,15,02,21,8.10
2018,10,15,02,22,8.10
2018,10,15,02,23,8.10
2018,10,15,02,24,8.10
2018,10,15,02,25,8.10
2018,10,15,02,26,8.10
2018,10,15,02,27,8.10
2018,10,15,02,28,8.10
2018,10,15,02,29,8.20
2018,10,15,02,30,8.20
2018,10,15,02,31,8.20
2018,10,15,02,32,8.20
2018,10,15,02,33,8.20
2018,10,15,02,34,8.20
2018,10,15,02,35,8.20
2018,10,15,02,36,8.20
2018,10,15,02,37,8.20
2018,10,15,02,38,8.20
2018,10,15,02,39,8.20
2018,10,15,02,40,8.20
2018,10,15,02,41,8.20
2018,10,15,02,42,8.20
2018,10,15,02,43,8.20
2018,10,15,02,44,8.20
2018,10,15,02,45,8.10
2018,10,15,02,46,8.10
2018,10,15,02,47,8.10
2018,10,15,02,48,8.00
2018,10,15,02,49,8.00
2018,10,15,02,50,7.90
2018,10,15,02,51,7.90
2018,10,15,02,52,7.90
2018,10,15,02,53,7.90
2018,10,15,02,54,7.90
2018,10,15,02,55,7.90
2018,10,15,02,56,7.90
2018,10,15,02,57,7.90
2018,10,15,02,58,7.90
2018,10,15,02,59,7.90
2018,10,15,03,00,7.90
2018,10,15,03,01,7.90
2018,10,15,03,02,7.90
2018,10,15,03,03,7.90
2018,10,15,03,04,7.90
2018,10,15,03,05,7.90
2018,10,15,03,06,7.90
2018,10,15,03,07,7.90
2018,10,15,03,08,7.90
2018,10,15,03,09,8.00
2018,10,15,03,10,8.00
2018,10,15,03,11,8.00
2018,10,15,03,12,8.00
2018,10,15,03,13,8.00
2018,10,15,03,14,8.00
2018,10,15,03,15,7.90
2018,10,15,03,16,7.90
2018,10,15,03,17,7.90
2018,10,15,03,18,7.80
2018,10,15,03,19,7.80
2018,10,15,03,20,7.80
2018,10,15,03,21,7.80
2018,10,15,03,22,7.70
2018,10,15,03,23,7.70
2018,10,15,03,24,7.60
2018,10,15,03,25,7.50
2018,10,15,03,26,7.40
2018,10,15,03,27,7.40
2018,10,15,03,28,7.30
2018,10,15,03,29,7.30
2018,10,15,03,30,7.20
2018,10,15,03,31,7.10
2018,10,15,03,32,7.10
2018,10,15,03,33,7.10
2018,10,15,03,34,7.00
2018,10,15,03,35,6.90
2018,10,15,03,36,6.90
2018,10,15,03,37,7.00
2018,10,15,03,38,7.00
2018,10,15,03,39,7.10
2018,10,15,03,40,7.20
2018,10,15,03,41,7.20
2018,10,15,03,42,7.30
2018,10,15,03,43,7.30
2018,10,15,03,44,7.40
2018,10,15,03,45,7.40
2018,10,15,03,46,7.50
2018,10,15,03,47,7.60
2018,10,15,03,48,7.60
2018,10,15,03,49,7.60
2018,10,15,03,50,7.60
2018,10,15,03,51,7.60
2018,10,15,03,52,7.60
2018,10,15,03,53,7.60
2018,10,15,03,54,7.60
2018,10,15,03,55,7.60
2018,10,15,03,56,7.60
2018,10,15,03,57,7.70
2018,10,15,03,58,7.80
2018,10,15,03,59,7.80
2018,10,15,04,00,7.90
2018,10,15,04,01,7.90
2018,10,15,04,02,8.00
2018,10,15,04,03,8.10
2018,10,15,04,04,8.10
2018,10,15,04,05,8.10
2018,10,15,04,06,8.10
2018,10,15,04,07,8.00
2018,10,15,04,08,8.00
2018,10,15,04,09,8.00
2018,10,15,04,10,8.00
2018,10,15,04,11,8.00
2018,10,15,04,12,8.00
2018,10,15,04,13,8.00
2018,10,15,04,14,8.00
2018,10,15,04,15,8.00
2018,10,15,04,16,8.00
2018,10,15,04,17,8.00
2018,10,15,04,18,8.10
2018,10,15,04,19,8.10
2018,10,15,04,20,8.10
2018,10,15,04,21,8.10
2018,10,15,04,22,8.10
2018,10,15,04,23,8.20
2018,10,15,04,24,8.20
2018,10,15,04,25,8.20
2018,10,15,04,26,8.20
2018,10,15,04,27,8.30
2018,10,15,04,28,8.30
2018,10,15,04,29,8.30
2018,10,15,04,30,8.30
2018,10,15,04,31,8.20
2018,10,15,04,32,8.20
2018,10,15,04,33,8.20
2018,10,15,04,34,8.20
2018,10,15,04,35,8.10
2018,10,15,04,36,8.10
2018,10,15,04,37,8.00
2018,10,15,04,38,8.00
2018,10,15,04,39,8.00
2018,10,15,04,40,8.00
2018,10,15,04,41,8.00
2018,10,15,04,42,7.90
2018,10,15,04,43,7.90
2018,10,15,04,44,7.90
2018,10,15,04,45,7.90
2018,10,15,04,46,7.90
2018,10,15,04,47,7.80
2018,10,15,04,48,7.80
2018,10,15,04,49,7.80
2018,10,15,04,50,7.80
2018,10,15,04,51,7.80
2018,10,15,04,52,7.70
2018,10,15,04,53,7.70
2018,10,15,04,54,7.60
2018,10,15,04,55,7.50
2018,10,15,04,56,7.40
2018,10,15,04,57,7.40
2018,10,15,04,58,7.30
2018,10,15,04,59,7.30
2018,10,15,05,00,7.20
2018,10,15,05,01,7.20
2018,10,15,05,02,7.10
2018,10,15,05,03,7.10
2018,10,15,05,04,7.00
2018,10,15,05,05,6.90
2018,10,15,05,06,6.90
2018,10,15,05,07,6.80
2018,10,15,05,08,6.80
2018,10,15,05,09,6.80
2018,10,15,05,10,6.70
2018,10,15,05,11,6.70
2018,10,15,05,12,6.70
2018,10,15,05,13,6.60
2018,10,15,05,14,6.60
2018,10,15,05,15,6.60
2018,10,15,05,16,6.50
2018,10,15,05,17,6.50
2018,10,15,05,18,6.40
2018,10,15,05,19,6.40
2018,10,15,05,20,6.40
2018,10,15,05,21,6.30
2018,10,15,05,22,6.30
2018,10,15,05,23,6.20
2018,10,15,05,24,6.20
2018,10,15,05,25,6.10
2018,10,15,05,26,6.10
2018,10,15,05,27,6.10
2018,10,15,05,28,6.00
2018,10,15,05,29,6.00
2018,10,15,05,30,5.90
2018,10,15,05,31,5.90
2018,10,15,05,32,5.80
2018,10,15,05,33,5.80
2018,10,15,05,34,5.80
2018,10,15,05,35,5.80
2018,10,15,05,36,5.80
2018,10,15,05,37,5.80
2018,10,15,05,38,5.80
2018,10,15,05,39,5.80
2018,10,15,05,40,5.80
2018,10,15,05,41,5.80
2018,10,15,05,42,5.80
2018,10,15,05,43,5.80
2018,10,15,05,44,5.80
2018,10,15,05,45,5.90
2018,10,15,05,46,5.90
2018,10,15,05,47,6.00
2018,10,15,05,48,6.00
2018,10,15,05,49,6.10
2018,10,15,05,50,6.10
2018,10,15,05,51,6.20
2018,10,15,05,52,6.20
2018,10,15,05,53,6.20
2018,10,15,05,54,6.30
2018,10,15,05,55,6.40
2018,10,15,05,56,6.50
2018,10,15,05,57,6.50
2018,10,15,05,58,6.50
2018,10,15,05,59,6.50
2018,10,15,06,00,6.50
2018,10,15,06,01,6.50
2018,10,15,06,02,6.50
2018,10,15,06,03,6.40
2018,10,15,06,04,6.40
2018,10,15,06,05,6.40
2018,10,15,06,06,6.30
2018,10,15,06,07,6.30
2018,10,15,06,08,6.20
2018,10,15,06,09,6.10
2018,10,15,06,10,6.00
2018,10,15,06,11,5.90
2018,10,15,06,12,5.80
2018,10,15,06,13,5.70
2018,10,15,06,14,5.70
2018,10,15,06,15,5.70
2018,10,15,06,16,5.70
2018,10,15,06,17,5.60
2018,10,15,06,18,5.60
2018,10,15,06,19,5.60
2018,10,15,06,20,5.60
2018,10,15,06,21,5.60
2018,10,15,06,22,5.60
2018,10,15,06,23,5.50
2018,10,15,06,24,5.50
2018,10,15,06,25,5.40
2018,10,15,06,26,5.30
2018,10,15,06,27,5.30
2018,10,15,06,28,5.30
2018,10,15,06,29,5.40
2018,10,15,06,30,5.30
2018,10,15,06,31,5.30
2018,10,15,06,32,5.30
2018,10,15,06,33,5.30
2018,10,15,06,34,5.30
2018,10,15,06,35,5.30
2018,10,15,06,36,5.30
2018,10,15,06,37,5.20
2018,10,15,06,38,5.20
2018,10,15,06,39,5.20
2018,10,15,06,40,5.30
2018,10,15,06,41,5.30
2018,10,15,06,42,5.30
2018,10,15,06,43,5.30
2018,10,15,06,44,5.30
2018,10,15,06,45,5.30
2018,10,15,06,46,5.30
2018,10,15,06,47,5.30
2018,10,15,06,48,5.30
2018,10,15,06,49,5.30
2018,10,15,06,50,5.40
2018,10,15,06,51,5.50
2018,10,15,06,52,5.60
2018,10,15,06,53,5.60
2018,10,15,06,54,5.60
2018,10,15,06,55,5.60
2018,10,15,06,56,5.60
2018,10,15,06,57,5.70
2018,10,15,06,58,5.80
2018,10,15,06,59,5.80
2018,10,15,07,00,5.80
2018,10,15,07,01,5.90
2018,10,15,07,02,5.90
2018,10,15,07,03,5.90
2018,10,15,07,04,5.90
2018,10,15,07,05,5.90
2018,10,15,07,06,5.90
2018,10,15,07,07,5.90
2018,10,15,07,08,5.90
2018,10,15,07,09,5.80
2018,10,15,07,10,5.90
2018,10,15,07,11,5.80
2018,10,15,07,12,5.80
2018,10,15,07,13,5.80
2018,10,15,07,14,5.80
2018,10,15,07,15,5.70
2018,10,15,07,16,5.60
2018,10,15,07,17,5.60
2018,10,15,07,18,5.60
2018,10,15,07,19,5.60
2018,10,15,07,20,5.50
2018,10,15,07,21,5.50
2018,10,15,07,22,5.50
2018,10,15,07,23,5.40
2018,10,15,07,24,5.50
2018,10,15,07,25,5.50
2018,10,15,07,26,5.40
2018,10,15,07,27,5.50
2018,10,15,07,28,5.60
2018,10,15,07,29,5.70
2018,10,15,07,30,5.80
2018,10,15,07,31,5.80
2018,10,15,07,32,5.90
2018,10,15,07,33,5.90
2018,10,15,07,34,6.00
2018,10,15,07,35,6.10
2018,10,15,07,36,6.10
2018,10,15,07,37,6.10
2018,10,15,07,38,6.20
2018,10,15,07,39,6.30
2018,10,15,07,40,6.50
2018,10,15,07,41,6.70
2018,10,15,07,42,6.80
2018,10,15,07,43,6.90
2018,10,15,07,44,6.90
2018,10,15,07,45,7.10
2018,10,15,07,46,7.20
2018,10,15,07,47,7.20
2018,10,15,07,48,7.30
2018,10,15,07,49,7.30
2018,10,15,07,50,7.40
2018,10,15,07,51,7.40
2018,10,15,07,52,7.50
2018,10,15,07,53,7.50
2018,10,15,07,54,7.50
2018,10,15,07,55,7.50
2018,10,15,07,56,7.60
2018,10,15,07,57,7.60
2018,10,15,07,58,7.60
2018,10,15,07,59,7.60
2018,10,15,08,00,7.50
2018,10,15,08,01,7.50
2018,10,15,08,02,7.50
2018,10,15,08,03,7.50
2018,10,15,08,04,7.40
2018,10,15,08,05,7.40
2018,10,15,08,06,7.30
2018,10,15,08,07,7.30
2018,10,15,08,08,7.30
2018,10,15,08,09,7.30
2018,10,15,08,10,7.30
2018,10,15,08,11,7.30
2018,10,15,08,12,7.30
2018,10,15,08,13,7.30
2018,10,15,08,14,7.30
2018,10,15,08,15,7.30
2018,10,15,08,16,7.30
2018,10,15,08,17,7.20
2018,10,15,08,18,7.20
2018,10,15,08,19,7.30
2018,10,15,08,20,7.30
2018,10,15,08,21,7.30
2018,10,15,08,22,7.30
2018,10,15,08,23,7.30
2018,10,15,08,24,7.40
2018,10,15,08,25,7.40
2018,10,15,08,26,7.50
2018,10,15,08,27,7.60
2018,10,15,08,28,7.60
2018,10,15,08,29,7.70
2018,10,15,08,30,7.80
2018,10,15,08,31,7.90
2018,10,15,08,32,8.00
2018,10,15,08,33,8.10
2018,10,15,08,34,8.20
2018,10,15,08,35,8.30
2018,10,15,08,36,8.40
2018,10,15,08,37,8.50
2018,10,15,08,38,8.50
2018,10,15,08,39,8.60
2018,10,15,08,40,8.70
2018,10,15,08,41,8.80
2018,10,15,08,42,8.80
2018,10,15,08,43,8.90
2018,10,15,08,44,9.00
2018,10,15,08,45,9.00
2018,10,15,08,46,9.10
2018,10,15,08,47,9.10
2018,10,15,08,48,9.10
2018,10,15,08,49,9.10
2018,10,15,08,50,9.10
2018,10,15,08,51,9.10
2018,10,15,08,52,9.10
2018,10,15,08,53,9.20
2018,10,15,08,54,9.20
2018,10,15,08,55,9.20
2018,10,15,08,56,9.30
2018,10,15,08,57,9.30
2018,10,15,08,58,9.30
2018,10,15,08,59,9.40
2018,10,15,09,00,9.40
2018,10,15,09,01,9.50
2018,10,15,09,02,9.60
2018,10,15,09,03,9.60
2018,10,15,09,04,9.70
2018,10,15,09,05,9.80
2018,10,15,09,06,9.80
2018,10,15,09,07,9.80
2018,10,15,09,08,9.80
2018,10,15,09,09,9.90
2018,10,15,09,10,9.90
2018,10,15,09,11,10.00
2018,10,15,09,12,10.10
2018,10,15,09,13,10.10
2018,10,15,09,14,10.10
2018,10,15,09,15,10.20
2018,10,15,09,16,10.20
2018,10,15,09,17,10.30
2018,10,15,09,18,10.30
2018,10,15,09,19,10.30
2018,10,15,09,20,10.40
2018,10,15,09,21,10.40
2018,10,15,09,22,10.50
2018,10,15,09,23,10.50
2018,10,15,09,24,10.60
2018,10,15,09,25,10.70
2018,10,15,09,26,10.70
2018,10,15,09,27,10.80
2018,10,15,09,28,10.90
2018,10,15,09,29,10.90
2018,10,15,09,30,11.00
2018,10,15,09,31,11.10
2018,10,15,09,32,11.20
2018,10,15,09,33,11.30
2018,10,15,09,34,11.30
2018,10,15,09,35,11.40
2018,10,15,09,36,11.50
2018,10,15,09,37,11.50
2018,10,15,09,38,11.60
2018,10,15,09,39,11.60
2018,10,15,09,40,11.60
2018,10,15,09,41,11.60
2018,10,15,09,42,11.70
2018,10,15,09,43,11.70
2018,10,15,09,44,11.70
2018,10,15,09,45,11.80
2018,10,15,09,46,11.80
2018,10,15,09,47,11.90
2018,10,15,09,48,11.90
2018,10,15,09,49,12.00
2018,10,15,09,50,12.00
2018,10,15,09,51,12.10
2018,10,15,09,52,12.10
2018,10,15,09,53,12.20
2018,10,15,09,54,12.20
2018,10,15,09,55,12.30
2018,10,15,09,56,12.30
2018,10,15,09,57,12.40
2018,10,15,09,58,12.40
2018,10,15,09,59,12.50
2018,10,15,10,00,12.50
2018,10,15,10,01,12.50
2018,10,15,10,02,12.60
2018,10,15,10,03,12.70
2018,10,15,10,04,12.70
2018,10,15,10,05,12.70
2018,10,15,10,06,12.80
2018,10,15,10,07,12.80
2018,10,15,10,08,12.90
2018,10,15,10,09,12.90
2018,10,15,10,10,13.00
2018,10,15,10,11,13.10
2018,10,15,10,12,13.10
2018,10,15,10,13,13.20
2018,10,15,10,14,13.30
2018,10,15,10,15,13.30
2018,10,15,10,16,13.40
2018,10,15,10,17,13.50
2018,10,15,10,18,13.60
2018,10,15,10,19,13.60
2018,10,15,10,20,13.60
2018,10,15,10,21,13.60
2018,10,15,10,22,13.60
2018,10,15,10,23,13.60
2018,10,15,10,24,13.60
2018,10,15,10,25,13.60
2018,10,15,10,26,13.60
2018,10,15,10,27,13.60
2018,10,15,10,28,13.70
2018,10,15,10,29,13.70
2018,10,15,10,30,13.70
2018,10,15,10,31,13.80
2018,10,15,10,32,13.80
2018,10,15,10,33,13.80
2018,10,15,10,34,13.80
2018,10,15,10,35,13.90
2018,10,15,10,36,13.90
2018,10,15,10,37,14.00
2018,10,15,10,38,14.10
2018,10,15,10,39,14.10
2018,10,15,10,40,14.10
2018,10,15,10,41,14.20
2018,10,15,10,42,14.20
2018,10,15,10,43,14.30
2018,10,15,10,44,14.30
2018,10,15,10,45,14.30
2018,10,15,10,46,14.30
2018,10,15,10,47,14.30
2018,10,15,10,48,14.30
2018,10,15,10,49,14.40
2018,10,15,10,50,14.40
2018,10,15,10,51,14.50
2018,10,15,10,52,14.60
2018,10,15,10,53,14.60
2018,10,15,10,54,14.70
2018,10,15,10,55,14.70
2018,10,15,10,56,14.70
2018,10,15,10,57,14.70
2018,10,15,10,58,14.80
2018,10,15,10,59,14.90
2018,10,15,11,00,14.90
2018,10,15,11,01,14.90
2018,10,15,11,02,14.90
2018,10,15,11,03,15.00
2018,10,15,11,04,15.10
2018,10,15,11,05,15.20
2018,10,15,11,06,15.30
2018,10,15,11,07,15.40
2018,10,15,11,08,15.50
2018,10,15,11,09,15.50
2018,10,15,11,10,15.40
2018,10,15,11,11,15.40
2018,10,15,11,12,15.30
2018,10,15,11,13,15.30
2018,10,15,11,14,15.40
2018,10,15,11,15,15.30
2018,10,15,11,16,15.30
2018,10,15,11,17,15.30
2018,10,15,11,18,15.30
2018,10,15,11,19,15.30
2018,10,15,11,20,15.40
2018,10,15,11,21,15.40
2018,10,15,11,22,15.40
2018,10,15,11,23,15.50
2018,10,15,11,24,15.50
2018,10,15,11,25,15.60
2018,10,15,11,26,15.60
2018,10,15,11,27,15.60
2018,10,15,11,28,15.60
2018,10,15,11,29,15.60
2018,10,15,11,30,15.50
2018,10,15,11,31,15.50
2018,10,15,11,32,15.50
2018,10,15,11,33,15.60
2018,10,15,11,34,15.70
2018,10,15,11,35,15.80
2018,10,15,11,36,15.80
2018,10,15,11,37,15.80
2018,10,15,11,38,15.90
2018,10,15,11,39,16.00
2018,10,15,11,40,16.00
2018,10,15,11,41,16.00
2018,10,15,11,42,16.00
2018,10,15,11,43,16.10
2018,10,15,11,44,16.10
2018,10,15,11,45,16.20
2018,10,15,11,46,16.20
2018,10,15,11,47,16.30
2018,10,15,11,48,16.30
2018,10,15,11,49,16.30
2018,10,15,11,50,16.40
2018,10,15,11,51,16.40
2018,10,15,11,52,16.40
2018,10,15,11,53,16.40
2018,10,15,11,54,16.50
2018,10,15,11,55,16.50
2018,10,15,11,56,16.60
2018,10,15,11,57,16.60
2018,10,15,11,58,16.60
2018,10,15,11,59,16.70
2018,10,15,12,00,16.70
2018,10,15,12,01,16.60
2018,10,15,12,02,16.60
2018,10,15,12,03,16.70
2018,10,15,12,04,16.70
2018,10,15,12,05,16.80
2018,10,15,12,06,16.80
2018,10,15,12,07,16.80
2018,10,15,12,08,16.80
2018,10,15,12,09,16.80
2018,10,15,12,10,16.80
2018,10,15,12,11,16.80
2018,10,15,12,12,16.90
2018,10,15,12,13,16.90
2018,10,15,12,14,16.90
2018,10,15,12,15,16.90
2018,10,15,12,16,16.90
2018,10,15,12,17,16.90
2018,10,15,12,18,17.00
2018,10,15,12,19,17.00
2018,10,15,12,20,17.00
2018,10,15,12,21,16.90
2018,10,15,12,22,16.80
2018,10,15,12,23,16.80
2018,10,15,12,24,16.80
2018,10,15,12,25,16.70
2018,10,15,12,26,16.70
2018,10,15,12,27,16.80
2018,10,15,12,28,16.80
2018,10,15,12,29,16.80
2018,10,15,12,30,16.70
2018,10,15,12,31,16.80
2018,10,15,12,32,16.80
2018,10,15,12,33,16.90
2018,10,15,12,34,17.00
2018,10,15,12,35,17.00
2018,10,15,12,36,17.00
2018,10,15,12,37,17.00
2018,10,15,12,38,16.90
2018,10,15,12,39,16.80
2018,10,15,12,40,16.80
2018,10,15,12,41,16.80
2018,10,15,12,42,16.80
2018,10,15,12,43,16.80
2018,10,15,12,44,16.80
2018,10,15,12,45,16.80
2018,10,15,12,46,16.80
2018,10,15,12,47,16.80
2018,10,15,12,48,16.80
2018,10,15,12,49,16.80
2018,10,15,12,50,16.80
2018,10,15,12,51,16.80
2018,10,15,12,52,16.80
2018,10,15,12,53,16.80
2018,10,15,12,54,16.80
2018,10,15,12,55,16.80
2018,10,15,12,56,16.80
2018,10,15,12,57,16.70
2018,10,15,12,58,16.70
2018,10,15,12,59,16.70
2018,10,15,13,00,16.60
2018,10,15,13,01,16.60
2018,10,15,13,02,16.70
2018,10,15,13,03,16.80
2018,10,15,13,04,16.80
2018,10,15,13,05,16.90
2018,10,15,13,06,16.90
2018,10,15,13,07,17.00
2018,10,15,13,08,17.00
2018,10,15,13,09,17.00
2018,10,15,13,10,17.00
2018,10,15,13,11,17.00
2018,10,15,13,12,17.00
2018,10,15,13,13,17.00
2018,10,15,13,14,17.00
2018,10,15,13,15,17.00
2018,10,15,13,16,17.00
2018,10,15,13,17,16.90
2018,10,15,13,18,16.90
2018,10,15,13,19,16.80
2018,10,15,13,20,16.80
2018,10,15,13,21,16.80
2018,10,15,13,22,16.80
2018,10,15,13,23,16.70
2018,10,15,13,24,16.70
2018,10,15,13,25,16.70
2018,10,15,13,26,16.70
2018,10,15,13,27,16.70
2018,10,15,13,28,16.80
2018,10,15,13,29,16.80
2018,10,15,13,30,16.80
2018,10,15,13,31,16.80
2018,10,15,13,32,16.80
2018,10,15,13,33,16.90
2018,10,15,13,34,17.00
2018,10,15,13,35,17.10
2018,10,15,13,36,17.30
2018,10,15,13,37,17.40
2018,10,15,13,38,17.50
2018,10,15,13,39,17.70
2018,10,15,13,40,17.80
2018,10,15,13,41,17.90
2018,10,15,13,42,18.00
2018,10,15,13,43,18.00
2018,10,15,13,44,18.10
2018,10,15,13,45,18.00
2018,10,15,13,46,17.90
2018,10,15,13,47,17.80
2018,10,15,13,48,17.80
2018,10,15,13,49,17.80
2018,10,15,13,50,17.80
2018,10,15,13,51,17.70
2018,10,15,13,52,17.70
2018,10,15,13,53,17.70
2018,10,15,13,54,17.70
2018,10,15,13,55,17.60
2018,10,15,13,56,17.60
2018,10,15,13,57,17.50
2018,10,15,13,58,17.50
2018,10,15,13,59,17.60
2018,10,15,14,00,17.60
2018,10,15,14,01,17.70
2018,10,15,14,02,17.80
2018,10,15,14,03,17.90
2018,10,15,14,04,17.90
2018,10,15,14,05,17.80
2018,10,15,14,06,17.80
2018,10,15,14,07,17.80
2018,10,15,14,08,17.90
2018,10,15,14,09,18.00
2018,10,15,14,10,18.20
2018,10,15,14,11,18.20
2018,10,15,14,12,18.20
2018,10,15,14,13,18.20
2018,10,15,14,14,18.20
2018,10,15,14,15,18.10
2018,10,15,14,16,18.10
2018,10,15,14,17,18.10
2018,10,15,14,18,18.00
2018,10,15,14,19,18.00
2018,10,15,14,20,17.90
2018,10,15,14,21,17.90
2018,10,15,14,22,17.90
2018,10,15,14,23,17.90
2018,10,15,14,24,17.90
2018,10,15,14,25,17.90
2018,10,15,14,26,17.90
2018,10,15,14,27,17.90
2018,10,15,14,28,17.90
2018,10,15,14,29,17.90
2018,10,15,14,30,17.90
2018,10,15,14,31,17.90
2018,10,15,14,32,17.90
2018,10,15,14,33,17.80
2018,10,15,14,34,17.70
2018,10,15,14,35,17.60
2018,10,15,14,36,17.60
2018,10,15,14,37,17.60
2018,10,15,14,38,17.60
2018,10,15,14,39,17.60
2018,10,15,14,40,17.60
2018,10,15,14,41,17.60
2018,10,15,14,42,17.60
2018,10,15,14,43,17.60
2018,10,15,14,44,17.60
2018,10,15,14,45,17.60
2018,10,15,14,46,17.60
2018,10,15,14,47,17.60
2018,10,15,14,48,17.60
2018,10,15,14,49,17.60
2018,10,15,14,50,17.60
2018,10,15,14,51,17.60
2018,10,15,14,52,17.70
2018,10,15,14,53,17.70
2018,10,15,14,54,17.70
2018,10,15,14,55,17.70
2018,10,15,14,56,17.80
2018,10,15,14,57,17.80
2018,10,15,14,58,17.80
2018,10,15,14,59,17.80
2018,10,15,15,00,17.90
2018,10,15,15,01,17.90
2018,10,15,15,02,18.00
2018,10,15,15,03,18.10
2018,10,15,15,04,18.20
2018,10,15,15,05,18.20
2018,10,15,15,06,18.20
2018,10,15,15,07,18.20
2018,10,15,15,08,18.20
2018,10,15,15,09,18.10
2018,10,15,15,10,18.10
2018,10,15,15,11,18.00
2018,10,15,15,12,18.00
2018,10,15,15,13,17.90
2018,10,15,15,14,17.90
2018,10,15,15,15,17.90
2018,10,15,15,16,17.90
2018,10,15,15,17,17.90
2018,10,15,15,18,17.80
2018,10,15,15,19,17.80
2018,10,15,15,20,17.70
2018,10,15,15,21,17.70
2018,10,15,15,22,17.70
2018,10,15,15,23,17.60
2018,10,15,15,24,17.50
2018,10,15,15,25,17.50
2018,10,15,15,26,17.50
2018,10,15,15,27,17.40
2018,10,15,15,28,17.40
2018,10,15,15,29,17.40
2018,10,15,15,30,17.40
2018,10,15,15,31,17.40
2018,10,15,15,32,17.50
2018,10,15,15,33,17.50
2018,10,15,15,34,17.50
2018,10,15,15,35,17.50
2018,10,15,15,36,17.40
2018,10,15,15,37,17.40
2018,10,15,15,38,17.40
2018,10,15,15,39,17.40
2018,10,15,15,40,17.40
2018,10,15,15,41,17.30
2018,10,15,15,42,17.30
2018,10,15,15,43,17.20
2018,10,15,15,44,17.20
2018,10,15,15,45,17.20
2018,10,15,15,46,17.10
2018,10,15,15,47,17.10
2018,10,15,15,48,17.10
2018,10,15,15,49,17.20
2018,10,15,15,50,17.20
2018,10,15,15,51,17.20
2018,10,15,15,52,17.20
2018,10,15,15,53,17.20
2018,10,15,15,54,17.20
2018,10,15,15,55,17.20
2018,10,15,15,56,17.30
2018,10,15,15,57,17.30
2018,10,15,15,58,17.30
2018,10,15,15,59,17.40
2018,10,15,16,00,17.40
2018,10,15,16,01,17.30
2018,10,15,16,02,17.30
2018,10,15,16,03,17.30
2018,10,15,16,04,17.20
2018,10,15,16,05,17.20
2018,10,15,16,06,17.10
2018,10,15,16,07,17.10
2018,10,15,16,08,17.10
2018,10,15,16,09,17.10
2018,10,15,16,10,17.00
2018,10,15,16,11,16.90
2018,10,15,16,12,16.90
2018,10,15,16,13,16.90
2018,10,15,16,14,17.00
2018,10,15,16,15,17.00
2018,10,15,16,16,17.00
2018,10,15,16,17,16.90
2018,10,15,16,18,16.90
2018,10,15,16,19,16.90
2018,10,15,16,20,16.90
2018,10,15,16,21,16.90
2018,10,15,16,22,16.90
2018,10,15,16,23,16.90
2018,10,15,16,24,16.90
2018,10,15,16,25,16.90
2018,10,15,16,26,16.90
2018,10,15,16,27,16.90
2018,10,15,16,28,17.00
2018,10,15,16,29,17.00
2018,10,15,16,30,17.00
2018,10,15,16,31,17.10
2018,10,15,16,32,17.10
2018,10,15,16,33,17.10
2018,10,15,16,34,17.10
2018,10,15,16,35,17.10
2018,10,15,16,36,17.10
2018,10,15,16,37,17.10
2018,10,15,16,38,17.10
2018,10,15,16,39,17.10
2018,10,15,16,40,17.10
2018,10,15,16,41,17.00
2018,10,15,16,42,17.00
2018,10,15,16,43,17.00
2018,10,15,16,44,16.90
2018,10,15,16,45,16.90
2018,10,15,16,46,16.90
2018,10,15,16,47,16.90
2018,10,15,16,48,16.90
2018,10,15,16,49,16.90
2018,10,15,16,50,16.90
2018,10,15,16,51,16.90
2018,10,15,16,52,16.90
2018,10,15,16,53,16.80
2018,10,15,16,54,16.80
2018,10,15,16,55,16.80
2018,10,15,16,56,16.80
2018,10,15,16,57,16.90
2018,10,15,16,58,16.90
2018,10,15,16,59,16.90
2018,10,15,17,00,16.80
2018,10,15,17,01,16.80
2018,10,15,17,02,16.80
2018,10,15,17,03,16.80
2018,10,15,17,04,16.80
2018,10,15,17,05,16.70
2018,10,15,17,06,16.70
2018,10,15,17,07,16.70
2018,10,15,17,08,16.70
2018,10,15,17,09,16.60
2018,10,15,17,10,16.60
2018,10,15,17,11,16.50
2018,10,15,17,12,16.50
2018,10,15,17,13,16.40
2018,10,15,17,14,16.40
2018,10,15,17,15,16.40
2018,10,15,17,16,16.40
2018,10,15,17,17,16.40
2018,10,15,17,18,16.40
2018,10,15,17,19,16.40
2018,10,15,17,20,16.30
2018,10,15,17,21,16.30
2018,10,15,17,22,16.30
2018,10,15,17,23,16.30
2018,10,15,17,24,16.30
2018,10,15,17,25,16.20
2018,10,15,17,26,16.20
2018,10,15,17,27,16.20
2018,10,15,17,28,16.20
2018,10,15,17,29,16.20
2018,10,15,17,30,16.20
2018,10,15,17,31,16.20
2018,10,15,17,32,16.10
2018,10,15,17,33,16.10
2018,10,15,17,34,16.10
2018,10,15,17,35,16.10
2018,10,15,17,36,16.10
2018,10,15,17,37,16.10
2018,10,15,17,38,16.10
2018,10,15,17,39,16.00
2018,10,15,17,40,16.00
2018,10,15,17,41,15.90
2018,10,15,17,42,15.90
2018,10,15,17,43,15.90